Theta_e
304 305 305 306 305 306 306 305 306 308 308 309 308 308 308 308 307 307 307 307 307 307 308 309 309 310 309 309 309 309 308 309 309 309 309 309 309 310 310 310 309 309 308 309 309 308 309 311 312 310 310 310 309 309 309 311 309 310 317 313 312 317 316 316 315 311 310 313 309 305 306 309 309 304 302 303 301 300 299 298 298 298 298 298 297 297 297 296
305 305 305 306 307 306 307 306 306 308 309 308 308 308 308 308 308 307 307 307 307 307 307 308 309 310 310 310 309 309 308 308 309 309 309 309 309 310 310 310 308 308 308 309 310 309 309 309 310 309 309 309 308 308 309 310 308 312 316 310 316 323 315 310 309 307 307 309 306 304 306 307 308 304 303 305 300 297 299 296 295 297 296 295 296 295 296 295
305 305 306 307 308 308 307 306 307 308 308 308 308 308 308 309 309 308 308 308 307 307 307 307 308 308 308 309 309 309 309 308 309 309 308 308 308 309 309 309 307 306 307 307 309 310 310 309 309 308 308 309 308 309 309 310 308 309 309 311 322 320 310 306 306 306 306 307 305 304 306 305 306 304 303 305 300 298 300 297 295 295 295 294 295 294 295 295
306 307 308 308 309 308 307 307 308 309 308 308 308 308 309 309 309 308 308 308 308 307 307 307 307 308 308 308 309 309 309 309 308 308 308 306 307 308 308 308 307 307 306 306 308 310 310 310 309 308 308 309 308 309 310 310 309 308 309 315 316 308 308 308 306 307 306 305 305 304 305 305 304 305 303 302 303 303 301 299 299 297 295 294 294 294 294 294
307 308 308 308 309 308 308 308 308 308 308 308 308 308 309 309 309 308 308 308 309 308 308 308 308 308 309 309 310 309 309 310 309 307 308 306 307 308 307 307 306 307 306 305 307 309 310 310 310 310 309 310 309 309 310 309 308 308 309 310 307 303 308 308 305 306 305 305 305 303 305 306 304 304 303 303 307 308 302 301 301 298 296 294 294 293 293 293
308 308 308 308 308 308 309 308 308 308 308 308 308 308 308 309 309 308 308 308 308 309 310 310 309 308 308 308 309 309 309 309 307 307 308 306 307 307 307 307 306 306 306 306 306 308 310 310 310 310 309 309 309 310 310 308 307 311 311 305 303 304 306 305 305 305 305 305 304 304 305 304 303 303 303 303 305 305 303 302 299 296 295 294 293 293 293 292
308 309 309 309 308 308 308 308 309 309 308 308 308 308 308 309 308 308 307 307 308 309 309 310 310 308 308 308 307 307 307 306 306 308 308 306 307 307 307 308 307 306 306 307 307 308 309 310 311 309 309 309 308 309 311 308 306 311 311 304 303 304 304 304 305 305 305 306 304 305 305 303 303 304 303 302 302 302 301 300 297 295 294 293 293 293 292 292
309 309 309 309 308 308 308 308 309 309 309 308 308 308 308 308 308 308 307 307 308 309 309 310 311 310 310 309 307 306 305 305 305 307 309 306 306 307 307 307 307 307 306 306 307 308 309 310 310 309 309 309 308 309 309 309 308 308 308 304 303 304 304 304 304 304 305 305 304 304 304 302 303 302 301 300 300 299 298 297 295 294 293 293 293 292 292 290
309 309 309 309 308 308 308 308 309 309 309 308 308 307 308 307 307 308 307 306 307 308 308 308 309 309 308 307 307 306 304 305 305 307 309 307 306 307 307 306 307 308 307 306 306 308 309 310 310 309 309 307 308 310 307 309 310 307 307 305 302 303 303 303 304 304 303 304 304 305 304 302 301 301 301 298 297 297 296 295 294 294 293 293 293 292 291 289
309 309 309 308 308 308 308 309 309 309 308 307 307 307 308 308 307 307 306 306 306 306 306 306 306 307 306 306 306 305 304 305 305 307 309 307 306 306 307 307 308 308 308 308 306 306 308 310 309 309 309 307 307 307 306 308 309 306 305 304 302 302 302 302 303 303 302 303 303 305 305 303 300 301 303 297 294 296 295 294 294 294 293 292 292 291 289 288
309 309 309 308 309 308 308 309 309 309 308 307 307 307 308 308 307 307 307 306 306 306 306 306 306 306 306 306 306 304 305 306 306 307 308 307 305 306 307 308 308 308 308 308 307 305 306 309 309 309 309 308 306 305 304 305 306 304 302 304 303 301 301 302 303 302 302 303 302 303 303 301 300 302 302 296 294 295 295 294 293 293 293 291 291 289 288 287
309 309 308 308 308 308 309 309 309 308 307 307 307 308 308 307 307 307 307 306 306 306 306 307 307 307 306 306 305 304 305 306 306 307 307 306 306 307 308 308 309 308 308 308 307 304 305 307 308 309 309 308 306 305 305 303 303 304 302 306 308 304 303 301 302 303 301 303 300 300 302 302 303 301 297 295 294 295 294 293 293 293 291 289 288 288 287 287
309 309 308 308 308 308 309 309 309 308 308 308 308 308 308 307 307 307 307 307 307 307 307 307 307 307 306 305 304 305 305 306 306 306 307 307 308 308 308 309 309 308 307 307 306 304 304 305 306 307 307 307 307 306 306 302 301 304 300 305 311 308 306 300 299 303 302 302 300 300 303 303 302 298 295 296 294 294 293 293 293 291 289 287 287 287 287 287
308 309 308 309 308 309 310 310 309 309 308 308 308 308 307 307 307 307 307 307 307 307 307 307 308 308 306 305 305 305 305 306 306 307 307 308 308 308 308 308 308 307 306 306 305 304 304 304 304 305 304 304 305 305 308 305 303 306 303 306 307 303 309 304 299 301 302 301 300 301 302 302 301 295 294 295 293 294 292 291 292 289 287 287 287 287 286 286
308 309 309 309 309 310 310 310 309 308 308 308 308 307 307 307 307 307 307 307 307 307 306 306 308 308 306 305 305 305 306 306 306 307 307 308 308 309 309 308 307 306 306 305 304 304 304 304 303 304 303 301 303 307 312 312 309 307 304 308 305 300 307 306 299 298 300 300 299 300 302 303 301 294 294 295 293 293 292 291 290 287 287 287 287 286 286 286
308 308 309 309 309 309 309 309 308 308 308 307 308 307 307 307 308 307 307 307 307 307 306 306 307 307 306 305 305 304 305 306 306 306 307 308 308 308 308 307 307 306 305 304 304 304 304 304 303 302 302 302 304 310 316 317 313 307 302 303 304 302 303 304 302 297 296 299 300 300 300 302 299 292 292 294 293 292 291 290 288 286 287 286 286 286 286 286
308 308 309 309 309 309 308 308 308 308 308 308 307 308 309 308 308 308 307 307 308 307 307 307 306 306 306 305 304 304 304 305 305 306 307 307 307 306 306 306 306 305 304 304 304 304 303 304 303 302 302 302 302 308 314 312 306 304 303 302 302 302 302 303 304 298 296 300 300 299 299 300 297 291 291 292 292 291 290 289 287 286 287 286 286 286 286 285
307 307 308 309 309 308 307 307 307 307 307 308 307 307 308 308 308 308 307 307 307 307 308 307 307 309 308 304 304 304 303 304 305 306 307 307 307 306 305 305 305 305 305 304 303 303 303 301 302 303 302 302 303 305 306 302 299 300 301 301 301 301 301 303 304 301 299 300 299 299 300 298 293 290 290 291 291 291 289 288 287 287 287 287 286 286 286 285
307 307 307 308 308 307 306 307 307 307 307 307 307 306 307 306 307 307 307 307 307 307 308 306 307 308 307 304 304 303 303 303 304 305 306 306 306 305 305 304 304 304 303 304 303 301 301 302 303 304 302 302 304 303 301 299 299 300 300 300 300 300 300 301 303 301 297 299 300 300 299 296 292 290 290 290 290 290 288 287 287 287 287 287 286 286 285 285
307 308 307 308 307 306 306 307 306 307 306 306 306 307 308 307 308 307 306 306 306 305 305 305 305 305 305 305 304 304 304 303 303 304 304 305 306 305 305 304 304 304 302 303 304 299 300 304 303 302 301 302 303 303 302 300 300 300 300 300 300 299 299 299 302 300 296 299 303 302 298 293 291 290 289 289 289 288 287 287 287 287 287 287 286 285 285 285
308 308 308 308 306 306 307 307 307 307 306 307 307 309 310 309 309 308 305 305 305 304 305 305 305 305 304 305 305 304 303 303 303 304 304 305 305 306 305 305 306 304 300 298 300 300 301 303 301 300 300 299 300 302 302 301 300 300 300 300 299 299 299 298 299 299 296 297 301 301 298 293 290 290 289 288 287 287 287 286 287 287 287 287 286 285 285 284
308 308 308 308 307 307 307 308 308 308 308 308 308 309 309 308 309 308 307 306 305 304 305 304 305 305 304 304 305 304 303 303 304 303 304 305 305 306 304 306 309 306 302 301 302 306 305 302 301 299 296 297 300 301 302 301 300 299 299 299 300 299 299 299 300 300 297 296 298 300 297 292 290 289 288 287 287 287 287 286 286 286 286 286 285 284 284 283
308 308 308 308 308 308 308 309 308 308 309 308 308 308 307 307 307 307 307 307 306 305 305 305 305 305 304 304 304 304 303 302 302 302 303 304 304 306 304 304 310 311 307 306 304 305 303 301 300 295 294 300 302 303 303 301 300 299 299 299 300 299 298 298 299 299 298 296 297 299 296 291 289 289 288 287 287 286 286 286 286 286 286 285 285 284 284 283
308 308 308 309 309 308 309 309 308 309 308 308 309 308 308 308 307 307 306 305 305 305 305 305 304 305 304 304 304 305 304 302 302 301 301 303 303 305 304 302 308 311 307 305 304 304 302 300 298 295 299 302 301 302 302 300 299 298 298 300 300 299 298 297 297 296 296 296 297 297 297 293 290 289 288 287 287 286 286 286 285 285 285 284 284 284 283 283
308 308 308 309 309 309 309 309 309 309 308 309 309 308 309 308 308 309 307 307 307 305 306 305 304 305 304 304 304 304 304 302 302 301 301 302 303 304 304 301 304 307 307 305 304 305 303 298 296 299 304 303 301 301 299 298 299 298 299 300 299 299 297 296 296 295 295 297 296 296 298 297 291 289 289 288 287 286 286 285 285 285 284 284 284 283 283 283
308 308 308 308 309 309 309 309 309 309 308 309 309 309 309 308 309 308 310 318 314 304 305 306 304 305 304 304 304 304 305 304 302 301 301 301 302 303 304 302 301 303 305 303 302 302 302 299 298 300 304 305 304 301 297 298 299 299 299 299 298 297 297 296 296 296 296 296 296 295 297 297 293 290 289 288 287 287 286 285 285 284 284 284 283 283 283 283
309 309 308 309 308 308 309 309 309 309 309 308 308 310 309 308 309 306 311 325 319 304 304 307 305 305 304 303 304 305 306 305 303 302 300 301 301 301 303 303 302 302 300 301 305 303 300 302 303 302 304 306 304 300 298 298 298 300 299 297 297 297 297 297 296 295 296 296 296 296 296 296 295 293 291 289 288 287 286 285 285 284 284 284 283 283 283 283
309 309 309 309 308 308 309 309 309 309 308 308 309 309 309 309 309 308 315 318 310 304 305 305 305 304 304 303 303 304 303 302 303 303 300 300 301 301 302 300 301 302 297 300 307 303 299 302 303 302 303 304 302 300 299 297 297 300 299 296 296 296 296 296 295 295 295 295 297 297 294 295 297 294 291 289 288 288 287 286 285 284 284 284 283 283 283 283
309 309 309 309 309 309 309 309 309 308 308 308 308 308 309 310 306 310 319 314 304 305 305 304 306 304 302 303 303 302 302 301 302 302 300 300 300 300 300 298 298 301 298 297 303 302 297 299 299 299 302 301 301 301 299 298 298 298 298 297 296 296 296 295 295 296 295 295 298 297 294 294 296 294 292 290 289 289 287 286 285 284 284 284 283 283 283 282
309 309 309 309 309 309 308 309 308 308 308 308 308 309 308 310 315 317 316 309 304 305 304 304 305 303 303 306 306 302 301 301 300 301 301 299 299 299 299 297 297 302 303 300 304 302 296 298 299 300 301 299 300 300 298 297 296 296 297 297 296 296 297 297 296 296 297 297 298 296 293 293 294 295 294 290 289 289 287 285 285 285 284 284 284 283 283 282
308 308 308 309 308 308 309 308 308 308 308 308 309 310 306 311 326 329 311 303 305 305 304 305 304 303 305 305 304 302 302 301 298 300 303 300 299 298 299 299 298 306 310 305 306 304 299 301 301 299 298 297 298 299 297 296 294 295 297 297 296 296 297 298 297 297 298 297 296 294 293 293 294 296 293 287 286 287 286 285 285 285 285 284 284 283 283 282
308 307 308 309 308 308 309 307 309 308 307 309 309 309 311 316 320 318 308 304 306 304 304 304 302 303 305 303 303 302 302 302 299 299 301 300 299 297 297 298 297 304 307 302 302 303 304 303 297 297 297 296 297 298 297 298 296 296 297 297 297 297 297 296 296 296 296 296 295 294 293 293 294 295 290 285 285 286 285 285 285 285 285 284 284 283 283 283
306 307 307 308 307 308 308 308 310 308 307 310 307 308 321 326 312 305 307 308 304 301 301 303 303 303 303 305 304 301 300 301 300 299 298 299 302 299 297 296 296 300 301 300 299 300 305 303 297 298 298 295 297 297 295 296 296 296 297 297 298 297 296 296 295 295 295 296 295 294 293 294 295 293 288 284 285 285 285 285 285 285 285 284 283 283 283 283
306 307 306 306 307 307 308 309 308 307 308 308 308 313 322 320 306 302 308 309 303 300 301 301 303 303 302 304 303 300 302 301 299 301 301 301 304 302 299 297 297 298 299 300 298 297 301 303 300 299 297 296 298 296 295 296 296 296 296 296 297 297 296 295 295 295 295 295 294 294 294 296 296 291 286 284 285 285 285 286 285 285 285 284 283 283 283 283
306 307 306 307 308 306 307 308 307 308 308 307 314 320 317 310 305 304 308 306 303 304 302 300 303 307 307 306 302 299 300 302 301 301 303 302 301 300 298 298 296 297 299 299 297 296 299 301 300 298 295 297 298 295 294 296 296 296 295 296 297 296 296 296 295 295 294 293 294 295 297 297 294 288 285 285 285 285 286 287 286 285 284 284 283 283 283 282
306 306 307 307 308 307 308 307 307 309 307 309 319 318 311 307 304 304 305 302 302 303 303 303 304 310 311 308 307 303 299 300 301 301 301 300 299 298 298 298 296 295 298 298 297 297 298 299 299 297 296 296 296 295 293 295 297 297 295 296 295 293 294 295 295 294 294 293 294 296 296 295 292 288 285 284 285 287 287 287 286 285 284 284 283 283 283 282
306 306 306 307 307 308 309 307 309 310 306 312 320 311 304 303 301 302 302 300 300 300 304 307 303 304 306 306 310 308 301 300 301 300 301 300 299 298 297 296 294 294 295 295 296 297 297 298 298 296 298 297 294 293 293 293 295 297 296 295 294 293 294 295 294 293 293 293 294 295 294 292 293 291 286 284 286 288 287 286 285 284 284 284 283 283 282 281
307 307 306 306 307 307 309 308 309 309 306 313 318 308 301 301 299 299 301 300 300 301 305 308 302 300 302 304 307 306 302 303 302 301 300 300 299 298 296 296 294 294 294 293 297 297 295 298 297 294 296 296 293 293 295 294 293 294 295 293 294 294 294 294 293 291 292 293 293 293 293 292 293 293 288 287 288 288 287 286 284 284 284 283 283 282 281 281
308 307 306 306 306 306 307 308 307 307 308 314 315 307 302 301 299 298 300 300 300 303 305 304 300 301 302 301 304 304 302 302 302 301 300 299 299 297 295 295 294 294 293 293 297 297 295 297 298 295 294 294 295 295 296 296 294 294 294 294 294 295 293 292 291 292 293 292 292 292 292 292 292 291 289 288 288 288 286 285 284 284 283 282 282 281 281 281
308 307 305 306 307 305 306 306 305 309 312 311 308 305 301 300 300 299 300 300 299 301 303 301 300 303 302 300 301 301 301 301 300 301 300 299 299 297 295 294 295 295 293 293 295 295 295 296 297 296 294 294 296 296 295 294 294 295 296 296 296 295 293 291 291 292 292 291 291 291 291 291 291 289 288 288 288 287 285 284 284 283 282 282 281 281 281 281
308 308 306 306 307 306 305 307 305 304 308 306 303 303 301 300 300 300 301 302 300 300 301 301 302 303 302 301 299 299 301 302 301 301 301 299 299 298 295 294 295 295 293 294 294 293 295 296 295 295 295 294 296 295 293 293 294 294 294 294 294 293 291 291 291 291 292 291 290 290 289 291 290 288 288 288 287 285 284 284 283 282 282 281 281 281 281 280
307 308 306 305 307 306 306 307 300 299 307 307 303 303 302 300 300 300 300 301 300 299 299 300 301 302 302 301 300 300 301 302 302 301 299 299 299 297 295 294 295 294 294 295 293 291 293 294 293 295 295 295 295 292 290 291 293 294 293 292 293 292 291 291 290 290 290 289 289 289 289 290 289 288 288 288 286 285 284 283 282 282 281 281 281 280 280 279
306 306 305 306 307 305 307 309 301 301 305 303 299 300 301 300 299 299 300 299 299 299 300 301 300 300 300 299 301 302 300 299 300 299 299 300 299 296 295 295 294 293 293 295 293 291 293 295 294 294 295 295 295 292 289 290 292 293 293 292 291 290 289 289 288 288 288 288 288 288 288 289 289 288 288 287 286 284 283 282 282 281 281 281 280 279 279 279
305 305 305 307 307 306 311 313 308 306 303 299 299 300 300 300 300 301 300 299 300 300 301 302 299 298 299 298 301 302 299 299 299 297 298 299 298 295 294 295 295 293 292 293 293 292 294 296 294 294 295 295 295 294 293 293 292 292 292 291 289 288 288 288 287 287 288 288 288 287 287 288 289 288 287 286 285 283 282 282 281 281 280 280 279 278 278 278
306 305 304 306 306 306 308 307 306 308 306 303 302 300 300 300 300 301 300 299 299 299 300 301 298 298 298 297 300 301 298 298 298 297 297 298 297 295 294 295 294 293 293 292 292 292 293 294 294 294 295 295 295 295 294 294 293 291 291 290 288 288 287 287 288 287 287 288 287 287 288 288 287 287 286 285 284 282 282 281 281 280 280 279 278 278 278 277
307 308 306 306 306 304 303 300 301 306 307 307 304 299 301 302 299 299 300 299 299 299 300 300 298 298 299 298 302 304 300 298 297 298 299 300 299 295 294 296 295 294 295 293 292 293 293 293 294 295 295 295 294 294 293 293 292 291 291 289 288 288 286 286 287 287 287 287 287 287 287 287 286 285 284 284 282 281 281 281 280 280 279 278 277 277 276 276
309 309 306 306 305 303 302 300 300 301 302 305 304 299 301 302 299 299 300 299 300 299 299 299 297 299 301 300 302 303 301 298 296 297 298 298 298 294 292 295 295 295 295 292 291 293 294 294 295 295 295 294 294 293 292 291 290 289 290 288 287 287 286 286 286 287 287 286 286 287 286 286 285 284 284 283 281 281 281 280 280 279 278 277 277 276 275 275
309 307 303 305 306 305 304 303 300 299 299 303 302 299 301 303 300 301 301 299 299 299 299 300 298 299 301 299 299 301 301 300 298 297 297 296 297 297 295 294 294 295 294 291 290 292 294 295 293 292 293 293 292 291 290 290 289 289 289 288 286 286 286 286 286 286 287 286 286 286 285 284 284 283 283 282 281 281 280 279 279 278 276 276 276 275 275 275
307 306 302 303 304 301 301 301 299 299 299 302 304 301 303 305 302 299 298 300 300 298 298 300 298 299 300 298 299 302 302 299 298 298 298 298 297 298 298 296 294 294 292 291 290 288 292 296 294 291 292 291 290 291 290 290 290 289 288 287 286 286 286 286 286 286 287 286 286 285 284 284 283 283 282 281 281 280 279 278 277 276 276 276 275 274 274 274
306 306 303 303 302 299 300 300 300 304 304 303 305 302 301 305 304 299 297 299 301 299 298 299 299 299 298 297 299 301 299 297 297 296 296 297 297 297 298 296 295 294 292 291 290 288 290 295 293 291 291 291 291 292 291 290 289 287 287 287 286 286 286 286 286 286 286 286 285 284 283 283 283 282 281 281 280 279 278 277 276 275 276 275 274 273 272 272
307 306 304 306 303 299 300 298 298 307 311 306 305 303 301 304 303 300 299 297 298 300 298 297 299 298 296 297 300 300 296 294 295 295 294 295 297 296 296 294 294 295 295 292 291 290 291 292 292 291 292 292 292 292 290 289 288 288 288 286 285 286 286 286 286 286 285 285 284 283 281 281 282 282 281 280 279 278 277 276 275 275 275 274 273 272 271 271
307 306 305 307 305 299 298 298 299 308 308 302 301 302 301 302 299 298 300 298 296 298 298 296 297 298 298 300 299 297 295 294 294 295 295 295 295 294 294 293 293 294 295 292 290 290 290 291 292 291 292 293 292 291 289 289 290 292 290 286 285 286 285 285 285 285 285 284 283 281 281 281 281 280 279 278 278 277 276 275 275 275 274 272 271 270 270 270
Wind_Speed
3 1 2 3 4 3 2 3 4 5 7 6 8 9 10 10 10 9 7 6 6 7 8 8 10 11 12 14 16 16 17 17 12 13 16 17 15 13 14 14 14 12 9 8 6 4 4 6 6 5 5 5 3 1 1 1 1 0 2 2 2 2 4 5 6 6 3 2 3 6 6 4 3 4 7 5 5 8 8 8 8 7 9 11 12 13 15 15
5 3 2 2 3 3 3 4 6 6 6 6 8 9 10 11 12 12 10 7 4 5 5 5 6 7 8 10 11 11 13 14 12 17 20 15 12 12 12 14 15 12 8 7 5 4 2 4 7 6 4 4 2 2 1 0 2 2 3 1 3 5 5 4 5 6 3 2 2 5 6 6 4 6 9 3 3 7 7 8 9 11 13 13 13 13 14 15
6 5 4 4 4 5 5 6 7 6 6 7 8 9 10 12 14 15 14 11 7 5 5 4 3 3 4 4 5 6 8 12 13 17 18 14 12 12 13 15 16 12 8 6 4 4 4 2 4 5 3 2 1 1 2 2 3 1 3 1 5 5 4 4 4 5 5 3 1 3 5 5 4 7 9 5 4 4 4 7 8 12 17 16 16 16 16 16
6 6 5 5 6 6 7 7 7 6 7 7 8 8 9 11 12 14 14 13 10 8 7 6 5 6 5 3 2 1 3 8 14 17 16 15 13 12 14 17 17 15 9 4 3 3 4 3 2 2 1 0 3 1 2 5 3 1 3 3 5 2 1 4 5 5 5 4 2 3 4 3 5 9 10 8 5 4 8 13 10 13 21 21 19 19 17 17
6 6 6 6 6 6 7 7 7 7 7 7 8 8 9 9 10 12 13 11 10 10 11 10 10 13 12 8 3 2 1 3 11 15 14 15 13 13 15 18 18 18 14 6 2 3 4 4 1 1 2 2 4 3 3 5 3 0 2 3 2 2 0 5 3 4 5 5 3 3 3 4 6 8 12 12 6 4 4 11 13 15 23 23 22 20 18 18
6 6 6 5 6 6 7 7 7 7 7 8 9 8 8 7 8 11 11 10 8 7 9 9 11 15 17 16 10 5 5 3 10 14 13 14 12 13 15 17 19 19 16 9 5 4 4 4 1 1 3 3 3 2 3 6 3 1 3 3 2 2 2 6 4 5 5 5 3 3 4 4 6 4 10 14 9 5 4 5 14 20 24 24 23 22 19 19
6 5 5 5 5 5 6 7 7 7 8 9 9 9 9 7 8 11 11 11 8 6 6 6 7 9 10 12 11 13 15 10 14 14 10 12 10 10 12 14 18 18 15 11 7 5 5 5 2 3 4 3 2 1 5 7 3 2 2 4 3 2 4 7 6 6 7 6 5 3 3 3 4 3 5 9 8 6 3 9 22 25 25 24 23 21 19 21
5 5 5 4 5 6 7 7 8 8 8 9 9 10 9 9 9 10 12 13 11 8 5 5 4 4 5 5 4 15 21 16 16 12 8 9 7 7 10 13 16 17 18 16 12 7 6 6 4 4 2 2 1 1 6 6 3 4 2 5 4 3 5 8 8 7 9 8 7 5 2 1 2 3 2 2 3 3 11 21 27 27 26 23 21 20 20 22
5 4 4 4 5 6 7 8 8 8 8 9 9 10 10 10 9 9 12 15 16 13 9 8 5 4 6 5 4 11 17 16 14 11 7 7 6 7 10 14 16 17 18 19 15 9 7 6 5 3 2 2 3 2 7 4 2 4 4 7 6 4 7 9 9 10 9 7 6 4 4 4 2 2 2 4 9 15 22 27 27 27 25 22 21 20 21 22
5 4 3 4 5 7 8 8 8 7 8 8 9 9 8 9 9 10 13 16 18 17 16 16 12 10 8 8 12 11 12 14 13 10 8 7 5 5 10 13 16 17 18 17 17 13 9 6 5 4 3 4 5 5 7 4 3 7 8 4 5 6 6 9 11 15 12 5 5 2 5 6 1 1 2 7 17 23 26 28 26 25 24 22 21 20 21 21
4 4 4 4 6 8 8 8 8 7 7 7 7 6 7 8 10 10 10 11 13 13 14 14 13 13 13 20 23 13 13 14 11 10 9 7 4 4 10 14 16 18 17 16 17 16 12 7 3 3 3 3 4 4 6 6 4 5 8 3 4 7 4 9 12 16 12 5 9 3 5 6 0 2 0 12 22 24 26 28 26 25 25 22 21 22 22 21
4 4 4 6 8 8 8 8 8 7 7 6 5 5 6 7 9 10 10 10 11 12 12 13 12 11 15 27 28 15 14 14 10 10 8 6 7 7 11 14 16 17 16 14 15 15 13 8 4 3 3 1 1 3 3 8 5 1 9 1 6 10 5 8 10 13 11 3 12 8 3 6 1 4 2 17 23 24 26 28 27 26 25 22 24 24 22 21
4 5 6 7 8 8 9 8 7 7 6 6 6 7 7 8 10 11 11 10 9 8 7 9 11 12 17 22 23 17 13 14 9 5 5 6 8 9 12 14 14 15 14 12 12 13 12 8 4 5 8 4 0 1 3 7 5 2 6 3 3 9 4 5 7 12 10 2 14 13 3 4 3 7 5 19 24 26 26 27 28 26 24 25 26 24 23 20
7 7 7 8 8 9 8 8 7 6 7 8 9 10 10 10 11 10 9 8 7 6 6 6 5 11 17 16 17 20 14 11 7 4 8 8 6 8 11 14 12 13 12 10 9 9 11 7 5 9 12 10 2 1 3 5 6 2 4 3 3 5 4 7 8 9 7 1 13 12 3 6 4 9 7 18 25 27 27 26 26 25 25 26 24 23 22 20
11 10 9 9 9 9 8 8 7 8 11 11 10 10 10 10 11 9 10 9 8 6 6 7 5 7 13 13 14 20 15 9 9 9 13 12 9 8 9 12 11 11 10 10 11 8 7 5 7 11 9 12 9 2 3 5 5 4 4 4 3 2 5 10 7 3 3 3 10 8 3 6 4 9 8 17 24 25 28 24 24 25 26 25 22 21 21 20
13 11 10 10 10 10 9 8 7 9 9 9 10 11 10 9 8 8 9 10 11 9 8 8 9 10 10 9 11 20 21 17 15 12 11 13 13 11 10 10 9 10 8 9 13 8 6 4 9 14 11 11 9 3 4 4 4 4 4 4 5 4 5 7 4 1 3 2 7 6 3 6 3 10 11 14 23 25 28 23 23 25 24 22 20 19 19 18
12 10 10 10 11 10 9 8 7 6 6 8 10 9 8 8 6 5 4 6 9 10 12 11 8 10 12 11 12 19 25 22 19 11 8 11 12 12 10 9 9 8 6 6 11 9 7 6 6 8 10 8 3 3 5 5 5 4 3 2 4 4 4 6 6 3 6 4 4 2 4 5 5 13 13 11 24 25 25 21 22 23 21 20 18 17 16 16
12 11 10 10 11 11 10 10 10 11 12 13 12 11 11 10 7 6 3 4 5 5 9 12 7 5 9 18 17 15 20 22 20 13 9 9 8 12 12 11 11 8 5 4 11 15 10 8 6 2 6 7 4 6 5 2 4 4 5 4 5 4 4 6 6 3 7 4 4 4 4 5 7 11 11 10 22 23 20 20 22 21 19 18 16 16 15 15
12 12 11 11 11 12 13 14 15 18 19 19 19 19 19 19 19 20 20 19 17 9 5 12 12 4 1 16 20 12 14 21 21 16 14 12 7 9 12 12 13 12 10 5 10 17 10 6 7 4 5 5 4 2 2 2 3 6 6 4 6 8 6 7 7 4 4 4 5 4 4 4 7 7 9 10 18 21 19 19 20 17 17 16 15 15 14 14
12 12 11 11 12 14 15 16 17 18 19 20 17 12 10 14 16 19 27 31 28 18 11 13 14 8 1 11 20 15 10 16 23 23 20 19 10 6 13 13 14 19 13 2 5 10 8 6 5 2 4 6 5 4 4 2 2 4 5 4 6 9 8 6 6 4 2 2 6 4 1 4 6 6 7 9 16 17 16 15 15 14 14 14 14 14 13 13
11 11 11 11 12 14 13 11 11 11 12 11 5 4 3 7 7 8 17 24 22 19 19 19 16 14 8 8 18 18 12 13 24 28 24 23 16 7 14 15 10 12 9 4 3 4 6 7 2 4 6 6 4 2 2 1 2 2 4 6 6 6 8 8 5 3 3 4 6 2 4 5 5 5 5 8 10 10 11 12 12 12 12 11 12 11 11 11
11 11 12 13 12 11 8 7 7 6 5 4 3 8 11 13 12 12 14 14 14 15 17 19 20 20 15 9 13 19 20 19 24 31 27 24 21 10 10 13 6 3 7 5 2 4 6 4 4 6 3 2 2 3 3 2 3 2 3 4 6 5 6 8 4 2 1 3 6 2 5 3 4 4 4 5 6 7 10 12 12 12 12 12 11 10 10 11
10 10 12 13 12 10 8 7 7 7 6 7 9 13 15 15 14 14 14 11 10 13 14 17 21 23 20 14 12 16 23 21 19 29 29 24 21 13 8 8 4 2 6 6 4 4 3 1 4 2 2 4 0 3 4 4 4 3 4 4 6 5 4 5 5 3 3 3 3 2 4 2 2 2 3 3 4 8 11 12 12 12 12 12 9 8 9 11
8 8 9 10 10 9 7 6 5 6 6 6 6 8 10 10 10 9 9 7 5 9 12 14 19 22 21 19 15 11 18 19 16 24 28 23 18 10 5 4 4 4 4 2 5 5 1 4 2 1 3 3 1 5 6 5 6 5 5 4 7 7 4 6 9 10 7 3 0 2 2 1 3 3 1 2 3 6 8 11 12 11 11 9 7 6 9 12
6 5 6 6 6 6 5 5 5 5 4 3 3 4 6 5 4 3 3 4 2 7 11 10 13 19 19 21 16 4 8 15 17 22 24 21 16 6 3 4 4 5 5 1 4 3 1 3 1 2 4 6 4 4 3 3 5 6 5 6 7 8 8 10 11 10 7 4 1 2 4 3 3 5 4 4 3 3 4 7 9 9 9 7 6 6 10 13
5 4 3 2 3 3 3 3 4 4 3 3 3 5 4 1 2 2 1 4 3 7 9 8 9 15 17 21 19 3 3 8 12 20 23 20 14 5 3 4 3 3 4 2 2 0 1 2 2 3 3 5 6 4 2 2 5 7 3 3 4 7 10 13 12 7 4 5 4 1 1 4 3 5 7 6 4 4 4 3 6 7 6 6 7 8 11 14
3 2 1 1 1 1 2 1 3 3 3 2 2 5 5 3 1 2 1 5 5 4 7 8 6 12 13 16 19 6 1 10 9 15 24 19 12 6 4 4 2 2 2 0 3 1 2 6 6 5 5 5 5 5 2 2 4 6 3 2 6 10 12 14 11 5 2 4 5 0 2 4 3 4 7 7 5 6 4 2 3 4 3 4 8 12 13 14
0 1 2 3 3 3 3 3 3 2 2 1 2 4 3 3 3 1 3 4 4 3 4 6 5 10 10 10 18 12 3 10 7 10 21 20 13 6 5 5 2 2 3 4 3 3 1 3 4 4 5 4 2 4 4 1 1 7 6 6 8 9 10 10 8 5 2 2 5 4 2 3 5 2 2 5 5 8 5 3 2 1 3 6 9 14 15 14
3 3 4 5 5 6 6 5 5 3 2 1 1 2 2 2 3 1 5 3 3 3 3 6 5 11 12 7 13 14 7 10 8 9 16 19 16 7 3 5 3 1 3 4 1 4 2 2 2 2 3 1 3 6 4 3 3 9 9 8 8 7 6 4 3 4 3 3 3 6 3 2 5 2 2 3 5 7 3 3 2 3 6 9 10 15 16 16
6 6 6 7 7 8 8 7 5 3 1 1 2 3 4 4 3 4 4 1 2 3 4 6 4 10 14 7 8 14 9 7 11 13 14 19 24 20 6 4 8 3 1 5 1 5 6 2 2 1 1 2 4 8 6 5 5 9 8 7 9 6 1 2 1 2 4 2 4 6 2 3 5 3 3 2 2 2 5 2 2 5 10 12 12 15 17 17
8 8 7 7 7 8 8 7 5 4 3 4 4 5 5 2 4 6 2 2 1 4 5 5 3 6 10 5 4 11 7 7 14 14 11 13 21 24 12 5 9 5 3 7 4 7 8 2 1 1 1 3 2 5 5 3 2 6 4 5 9 7 4 4 4 4 4 5 5 2 2 2 4 4 2 3 3 6 6 3 2 5 11 13 12 15 18 19
6 6 5 4 4 4 5 5 4 4 5 6 5 4 3 3 4 3 1 4 2 3 2 2 4 4 5 3 3 6 4 5 10 9 5 5 6 10 9 4 5 5 5 6 5 7 5 1 3 3 1 5 4 4 6 2 4 6 4 6 7 6 5 4 6 4 1 6 5 3 4 2 5 4 3 6 4 5 6 4 5 8 12 13 13 17 20 22
3 3 3 2 2 1 3 5 5 6 6 6 5 2 4 5 2 2 3 3 1 2 1 2 4 3 3 4 4 5 3 2 7 6 2 2 4 4 6 7 6 4 3 4 4 7 5 3 6 3 0 5 6 5 7 4 5 6 3 3 3 3 6 7 7 7 6 8 8 5 3 3 7 4 4 7 5 6 5 6 9 10 12 14 16 19 23 26
5 6 4 3 4 4 4 5 6 7 6 6 4 3 7 5 1 1 2 3 1 3 2 1 4 4 2 3 4 4 3 2 4 6 4 4 5 4 5 8 9 4 0 2 3 3 4 5 4 2 3 6 4 3 3 4 4 3 2 2 1 2 5 7 5 7 9 10 10 7 1 4 6 2 4 8 9 7 3 8 12 12 12 15 19 22 27 32
8 7 5 4 6 5 5 5 5 6 6 6 4 6 6 2 3 1 2 4 2 3 3 2 3 4 3 3 4 2 3 2 3 5 5 4 3 3 3 4 6 4 2 2 2 0 1 5 5 3 5 3 3 4 2 1 3 2 2 2 2 1 3 4 5 7 10 10 7 4 2 4 2 1 4 7 7 2 7 11 13 14 15 20 25 30 36 40
8 7 5 6 6 5 5 5 5 6 5 5 7 6 2 3 2 2 1 2 1 2 3 3 4 5 4 4 4 4 2 1 2 4 3 2 1 2 2 2 3 4 2 1 1 1 1 6 7 7 5 2 3 8 4 2 3 2 2 4 5 3 5 2 6 6 8 9 5 2 4 4 1 1 1 1 2 5 9 11 13 15 21 27 31 36 40 42
7 8 9 9 7 6 5 5 5 4 4 5 7 3 3 1 1 2 0 1 1 1 3 2 2 3 3 3 4 6 5 2 3 4 2 1 1 1 2 2 1 2 1 1 1 1 1 6 7 4 3 3 7 9 2 2 4 3 2 5 5 0 3 2 4 5 6 8 5 3 8 10 6 3 1 1 6 8 9 11 15 20 24 27 31 35 40 44
6 8 10 11 10 8 5 6 5 5 6 7 6 2 2 1 0 1 1 1 1 2 5 2 1 2 1 1 3 5 5 4 4 4 2 2 2 1 2 2 1 2 3 1 1 0 1 4 6 1 2 8 9 6 2 3 4 2 3 3 2 4 5 3 2 4 5 8 8 9 11 8 4 4 2 2 7 12 12 12 14 18 22 26 32 38 44 46
3 5 9 11 10 9 8 8 6 6 8 7 3 2 1 1 1 1 0 1 1 2 4 1 0 2 1 1 2 4 4 3 3 3 2 2 3 1 3 1 1 4 4 2 2 1 1 1 5 3 2 7 6 4 3 5 3 2 4 3 3 3 3 0 1 1 3 7 9 11 12 6 2 4 3 5 11 15 16 12 9 17 26 33 38 42 46 42
2 2 8 10 8 9 8 8 7 7 6 4 3 2 1 1 2 2 1 1 1 2 2 1 1 2 2 0 0 1 2 1 1 2 1 1 3 1 3 1 1 4 4 1 2 1 1 1 4 5 4 3 3 2 3 4 4 5 5 5 5 2 2 2 2 2 2 4 7 10 11 6 4 2 2 9 15 16 16 13 12 25 36 39 43 46 43 38
2 3 7 8 7 7 7 8 9 8 5 3 2 2 1 2 3 2 2 2 2 3 2 3 3 1 0 1 1 1 1 1 1 1 1 1 1 1 2 2 1 4 3 2 2 1 0 1 3 5 6 3 3 3 2 1 1 2 4 3 3 2 3 6 5 1 2 2 6 7 8 8 5 1 3 12 15 14 17 19 22 33 40 42 45 44 39 41
4 3 5 8 7 4 7 9 8 5 4 3 3 3 2 2 3 2 2 2 2 2 2 3 2 2 2 0 1 1 0 1 0 1 1 1 1 1 2 5 4 3 2 1 2 2 1 1 2 5 5 6 7 2 3 2 3 2 1 1 1 1 3 2 5 5 3 3 6 6 8 9 2 1 9 17 17 17 24 30 32 35 41 43 43 41 42 45
9 6 4 5 5 6 8 6 6 5 4 3 4 4 3 2 3 2 2 3 2 0 2 1 1 1 1 1 1 1 1 1 2 0 1 2 2 2 1 4 5 3 2 1 3 2 1 2 2 5 5 6 5 2 3 2 3 3 2 3 3 2 1 3 5 4 4 4 5 5 8 8 3 7 19 23 20 22 30 36 35 36 41 42 41 43 45 40
15 13 10 6 2 3 5 4 2 2 2 2 4 4 4 4 4 3 1 2 2 1 2 1 0 1 0 1 2 1 1 1 1 1 1 2 2 1 1 2 4 4 3 1 2 5 3 1 4 7 7 7 6 5 3 3 4 4 2 2 4 4 4 2 1 2 2 4 7 8 8 9 8 14 21 20 17 21 28 35 36 37 38 39 43 45 41 34
9 10 14 13 6 4 6 7 8 5 2 3 5 3 3 4 5 4 3 3 3 2 2 1 0 1 1 1 2 1 1 2 1 1 2 1 2 1 0 1 2 3 3 2 1 4 2 0 2 2 5 8 8 8 9 8 7 5 2 5 6 5 5 5 4 3 3 7 9 8 9 13 16 18 19 14 14 19 25 32 37 36 34 40 45 39 34 34
3 3 7 12 12 13 14 12 11 9 5 4 4 2 1 2 2 4 4 3 3 3 3 2 1 1 2 3 3 2 2 2 2 1 1 2 3 1 0 0 1 2 2 2 3 3 2 0 2 4 5 6 8 10 12 10 9 9 9 7 5 3 4 4 4 3 6 9 10 9 13 20 22 20 17 14 16 19 21 28 34 33 37 45 41 32 33 35
4 2 1 4 9 13 14 10 9 9 5 4 3 0 1 1 1 2 3 2 2 2 2 3 3 1 2 3 2 1 3 3 3 1 0 2 4 3 2 1 0 1 1 3 4 3 3 1 4 5 7 9 10 13 14 11 8 10 9 6 4 5 5 5 5 6 7 8 10 15 21 22 21 19 16 16 18 18 20 28 32 34 41 43 33 30 36 32
3 3 4 4 3 4 6 5 8 11 7 4 3 1 1 2 1 1 1 1 2 2 1 2 4 3 0 0 2 1 3 4 3 2 0 1 3 4 3 0 1 1 1 3 4 4 4 3 4 3 6 10 10 13 13 9 7 5 4 3 3 6 7 6 7 9 8 7 12 21 25 21 18 16 15 19 21 20 25 32 35 38 41 35 28 31 35 30
8 9 6 6 5 6 7 6 10 13 8 4 3 2 2 4 2 1 1 1 1 3 2 1 4 5 1 1 3 2 2 2 3 3 1 0 3 3 2 1 1 2 1 2 3 4 3 3 3 1 7 11 11 12 9 6 5 3 2 2 4 5 6 7 8 9 10 12 16 20 21 17 14 13 18 26 30 30 32 35 38 41 38 30 28 32 36 35
11 8 8 13 12 9 8 6 6 8 5 3 3 1 2 5 3 2 0 2 0 2 3 1 3 3 1 2 3 1 2 3 3 4 3 1 2 0 0 1 1 3 4 1 1 3 1 3 1 2 5 10 9 8 6 7 7 4 1 3 6 9 9 8 9 10 12 15 16 16 14 12 11 17 26 33 34 33 32 33 39 39 32 29 31 35 39 40
9 9 14 18 10 5 4 3 3 4 3 3 2 2 1 2 4 4 2 2 1 1 1 1 1 0 2 2 2 2 3 3 5 6 4 3 3 2 1 1 1 3 4 2 1 2 2 2 3 4 4 8 6 7 13 14 8 3 2 4 7 10 10 9 9 10 13 17 17 14 10 8 11 21 29 31 31 29 28 33 38 34 27 29 33 38 42 40
12 15 16 13 6 4 3 3 3 4 2 1 2 3 1 2 5 5 3 2 1 3 2 1 2 1 2 0 2 3 3 3 3 4 4 5 6 5 5 5 3 2 1 2 1 1 2 1 3 3 4 8 8 11 14 13 6 3 1 2 6 8 10 11 12 13 13 12 9 9 9 11 16 21 22 24 27 26 27 35 36 28 27 30 34 39 39 37
Wind_Direction
151 122 91 60 52 58 42 69 88 74 62 53 47 44 47 48 47 47 51 69 88 99 110 105 88 79 73 71 68 63 54 41 36 49 45 33 22 9 360 350 348 344 345 353 355 347 260 239 238 252 264 257 275 275 190 210 199 158 102 108 259 203 201 191 186 197 168 263 247 191 195 166 184 174 145 120 103 110 103 97 104 118 122 127 133 142 151 152
130 134 131 94 64 65 63 77 88 81 76 67 53 50 53 56 58 55 52 57 78 91 106 114 88 69 64 69 68 65 53 37 41 49 40 29 15 4 351 344 346 338 332 338 347 9 332 241 243 258 266 234 263 315 167 105 26 97 106 111 237 206 211 200 188 199 185 265 213 196 210 199 218 182 164 168 122 126 105 93 110 120 116 122 130 137 150 153
119 122 119 94 72 65 72 86 95 96 96 79 57 54 62 69 66 58 51 48 54 77 88 94 68 26 26 42 55 55 39 30 36 37 30 22 12 2 352 348 353 350 335 324 328 5 9 310 257 266 260 209 315 350 102 19 1 107 108 286 245 217 230 248 228 219 231 263 218 196 202 203 219 181 179 185 161 169 168 154 141 136 133 130 133 134 142 146
107 104 98 81 70 71 84 98 109 113 104 83 59 60 75 77 69 56 49 44 47 63 72 70 46 22 11 353 3 6 13 28 26 22 19 19 17 10 4 1 2 3 359 330 312 337 355 357 288 271 226 94 12 40 45 6 358 142 144 206 244 208 260 279 247 247 256 257 255 195 185 227 213 188 190 161 142 255 231 206 200 167 152 140 136 136 134 134
103 99 89 77 75 85 103 116 122 117 104 85 67 68 81 80 67 52 45 42 47 63 73 71 60 53 51 45 38 298 293 24 8 12 17 20 26 23 18 16 12 9 10 11 352 337 344 358 44 60 65 48 19 37 17 10 29 246 206 220 250 130 248 312 271 255 263 241 233 181 191 234 194 191 200 180 178 249 255 228 211 172 157 146 138 134 126 119
108 97 85 79 83 101 121 129 123 112 101 86 76 76 81 79 63 50 42 38 44 69 71 63 62 64 62 57 57 63 91 70 359 9 17 22 29 31 31 28 24 18 13 16 15 4 355 358 27 48 52 51 20 38 7 359 19 252 290 340 348 179 267 328 308 267 276 236 220 205 215 200 175 208 216 204 221 256 318 231 180 159 152 147 138 132 121 109
109 95 87 85 93 116 132 131 119 107 97 88 84 79 77 73 63 54 45 43 50 76 72 50 50 57 59 58 61 64 69 46 5 10 17 24 30 32 35 28 30 29 23 26 24 20 9 5 53 70 71 60 15 12 354 345 27 105 301 346 357 297 302 324 312 288 286 258 261 269 232 199 188 245 233 216 243 274 282 158 155 149 144 142 135 128 116 107
105 97 93 99 111 129 135 128 114 103 96 92 88 80 75 72 67 59 53 58 65 76 74 55 46 34 28 24 43 50 42 18 3 11 15 27 32 27 25 18 24 28 29 34 30 25 19 23 47 51 77 68 34 329 354 343 19 66 339 332 346 333 342 343 335 315 299 285 291 289 266 302 249 259 296 213 216 155 143 145 145 141 138 136 128 116 110 109
106 104 104 113 121 131 129 118 106 102 100 96 91 82 74 64 62 65 67 72 75 75 74 64 55 39 30 21 65 49 24 3 0 7 12 23 27 23 13 12 19 21 26 31 30 33 33 37 40 45 101 83 70 1 7 10 349 8 333 341 358 349 8 16 18 5 339 316 308 288 303 322 307 310 355 104 137 139 141 142 141 140 135 127 117 109 112 110
108 103 109 115 119 124 119 109 104 104 105 102 96 81 67 61 69 81 82 79 75 73 69 67 64 62 62 65 76 59 13 5 5 8 16 15 15 12 2 9 17 17 21 23 26 35 36 38 45 62 77 68 61 22 19 26 325 339 326 314 3 2 29 32 26 18 13 2 353 289 287 303 242 1 322 134 138 144 142 140 140 140 130 118 116 113 114 106
101 95 105 108 113 116 110 106 102 105 110 108 101 76 55 66 80 86 88 82 75 72 67 67 65 62 64 62 65 52 12 12 11 19 27 20 15 353 358 10 11 10 14 15 23 32 32 37 40 33 37 51 43 23 37 19 323 346 357 264 312 1 36 24 16 11 16 37 9 313 263 317 216 28 315 148 144 152 145 141 141 135 126 118 118 115 110 100
91 90 98 103 109 110 104 103 100 107 112 103 91 65 54 72 83 84 87 86 76 74 69 60 54 52 55 54 52 38 16 19 17 21 28 30 19 2 5 8 3 4 7 9 23 29 27 36 25 9 40 86 353 14 33 5 333 334 26 344 310 360 6 5 13 358 1 55 9 351 291 340 303 16 83 155 152 156 146 140 140 130 125 118 115 110 101 92
86 90 97 101 104 104 101 100 103 108 101 91 83 73 73 77 86 90 88 80 65 63 56 47 50 49 56 55 44 34 29 25 25 28 31 29 3 354 2 360 357 4 7 11 25 30 32 38 36 57 61 56 168 24 327 349 355 292 21 67 343 1 334 357 13 349 357 75 10 8 329 305 250 26 76 166 160 155 145 138 138 128 122 115 110 104 92 83
87 92 97 99 100 99 98 99 101 98 95 94 87 83 82 81 91 94 84 70 50 39 27 36 56 47 55 61 39 32 36 31 39 53 37 30 1 351 358 359 360 4 9 14 18 29 35 38 49 60 53 32 21 260 330 358 21 340 356 47 39 7 281 326 350 350 6 328 359 9 289 273 245 20 41 176 168 156 144 137 137 125 118 114 106 100 88 77
89 92 97 99 99 96 96 98 97 104 105 92 82 85 86 88 92 86 81 65 44 45 42 53 72 55 54 57 34 28 35 41 35 30 25 24 19 10 359 357 360 3 10 13 6 10 11 12 48 45 29 17 24 40 359 0 15 27 9 342 352 15 282 312 331 15 49 285 354 21 283 278 232 6 15 180 174 156 145 139 135 123 119 115 105 99 87 76
87 90 99 101 97 94 92 94 102 115 108 83 81 88 89 93 86 88 93 60 46 60 62 64 67 64 55 35 22 26 32 33 24 20 16 18 23 19 6 353 350 357 5 7 5 5 351 7 59 47 35 24 26 49 35 12 351 14 31 327 304 326 313 317 318 66 67 305 354 34 268 281 252 353 356 187 177 154 144 137 129 123 118 112 103 97 86 75
86 87 96 96 93 93 91 93 103 113 105 94 93 89 85 82 68 82 92 40 56 70 57 61 69 70 57 27 17 20 25 27 22 20 8 13 25 21 10 359 354 349 342 352 4 12 15 34 65 46 39 38 17 59 51 13 332 330 12 337 280 283 294 313 304 321 33 22 335 1 231 274 309 347 357 177 171 149 140 133 128 124 116 110 102 93 82 68
84 85 88 92 97 97 98 103 105 108 105 99 92 86 81 74 70 77 74 43 72 76 42 40 44 85 49 21 16 12 21 27 23 25 15 1 13 16 15 16 13 0 355 12 15 20 25 37 61 49 26 26 10 50 58 334 291 293 317 314 291 281 244 272 284 312 25 16 295 296 260 297 333 349 18 135 155 140 131 129 128 123 114 108 100 91 79 63
86 87 87 92 105 107 109 110 109 110 106 102 97 92 88 83 80 74 70 69 67 69 38 26 36 100 57 9 16 15 27 31 26 30 25 13 11 14 20 25 25 30 39 39 9 16 23 31 47 36 357 345 336 53 129 246 244 264 284 275 284 295 267 253 263 276 2 334 283 275 262 325 347 356 30 100 133 127 122 126 126 121 113 107 100 89 76 63
89 89 91 95 113 116 111 110 111 112 108 112 108 91 85 77 71 63 62 66 67 71 69 48 49 68 88 7 18 20 29 35 31 31 26 21 18 10 20 22 28 36 39 10 332 8 37 51 43 352 297 287 280 241 217 247 246 267 285 273 273 285 285 271 260 266 11 339 272 239 114 17 3 5 34 92 116 114 118 123 120 117 111 108 104 87 70 59
87 88 96 102 123 124 110 102 105 110 113 127 121 40 64 71 74 78 70 69 68 68 60 53 52 46 38 15 17 20 26 33 29 29 27 21 19 15 19 22 34 32 6 295 277 352 50 65 10 286 264 263 279 223 185 290 269 266 281 290 295 280 280 279 259 267 42 25 293 269 75 33 14 11 36 94 107 106 115 117 111 109 105 106 104 84 59 43
87 88 97 105 125 131 114 96 88 90 102 137 124 86 94 92 95 99 90 84 68 60 51 44 44 39 37 31 18 18 26 26 18 21 22 17 21 28 26 32 55 21 341 351 9 2 46 64 295 291 248 191 62 88 83 359 307 288 285 298 307 299 293 290 253 193 81 352 306 8 79 40 26 27 32 75 100 108 112 110 106 102 97 100 96 69 43 25
91 87 95 103 117 122 112 102 87 79 84 106 109 98 96 94 95 91 88 98 75 50 40 35 35 30 29 28 14 20 36 34 11 11 13 11 19 30 38 42 53 4 355 24 56 45 46 287 282 298 148 147 53 16 37 6 340 310 311 313 299 311 331 304 294 295 297 281 284 64 94 91 60 53 30 58 112 113 110 104 100 97 94 94 83 51 26 14
97 87 91 96 106 113 106 93 78 79 92 107 108 100 101 94 95 92 80 97 89 36 30 30 28 24 22 17 8 25 50 45 20 7 7 9 14 21 41 43 42 25 348 27 84 92 179 259 275 48 64 96 337 355 24 5 342 312 287 268 278 304 299 274 296 309 314 315 163 64 42 200 162 168 167 152 137 118 117 108 99 95 92 85 68 38 9 5
103 96 93 91 96 99 93 83 68 79 95 108 144 134 116 96 76 66 62 90 70 7 17 20 21 20 14 10 8 32 68 46 26 8 5 12 12 12 39 30 44 15 318 244 91 78 245 271 296 16 21 48 40 2 11 7 346 320 277 230 253 300 300 288 302 315 329 332 252 58 348 294 188 189 201 191 185 176 147 119 108 98 87 67 46 21 352 354
105 112 109 97 95 76 73 67 53 66 73 75 170 177 154 123 32 5 47 75 15 337 0 5 10 11 7 8 5 11 99 25 14 8 9 13 11 25 35 7 54 21 302 233 86 108 287 351 51 70 31 40 37 357 326 53 6 323 275 197 260 302 304 298 305 319 324 297 273 114 293 267 224 213 212 196 201 205 186 145 122 103 75 45 24 0 342 344
110 131 154 255 273 16 25 11 18 31 45 61 168 190 208 240 300 326 10 48 6 325 357 360 1 5 9 13 15 56 135 335 347 12 14 14 11 44 56 350 22 20 298 322 18 319 318 358 21 49 41 42 32 349 313 86 10 300 271 29 320 308 301 296 305 301 249 290 300 322 163 252 270 242 204 176 203 227 205 179 138 108 40 8 358 348 340 336
175 209 254 268 268 282 296 301 306 336 15 47 154 174 209 233 219 243 87 74 347 331 0 355 2 6 13 28 32 67 86 347 2 6 12 21 15 33 62 18 332 290 2 47 356 310 315 359 359 28 30 30 5 312 301 108 318 277 288 324 300 287 282 282 299 295 277 2 312 319 30 272 275 299 132 147 210 239 204 158 184 219 315 328 337 341 339 331
283 265 273 274 266 265 274 288 286 287 331 9 124 142 140 126 176 92 79 106 328 352 356 352 354 352 358 24 33 42 42 24 22 349 13 33 25 30 81 17 23 187 18 41 284 289 320 267 267 84 64 336 280 293 295 164 247 289 307 314 292 275 268 275 303 303 342 71 268 300 0 312 283 290 118 154 237 247 178 130 221 268 309 311 321 334 335 329
290 280 281 279 271 267 264 269 267 258 256 113 107 127 127 105 102 66 54 206 328 344 327 355 351 339 356 14 16 15 21 22 5 357 19 34 33 40 59 354 18 81 6 11 315 291 325 279 210 115 115 279 279 298 296 206 258 316 330 326 315 308 336 48 34 9 12 9 262 281 4 30 311 272 146 166 254 152 110 85 265 295 322 314 311 324 328 326
293 288 286 283 274 266 256 249 245 227 183 140 121 124 132 77 64 89 84 259 315 341 341 6 348 350 16 37 0 356 1 359 1 11 18 19 29 32 31 358 3 23 14 1 340 318 344 63 184 310 6 351 298 288 298 232 281 345 346 336 334 335 17 28 359 38 28 309 288 290 19 21 279 287 79 113 85 96 103 57 303 295 322 317 307 319 325 324
299 297 295 300 288 264 238 219 204 183 173 154 133 133 132 34 27 92 281 307 328 344 356 334 325 3 17 22 6 343 340 349 1 26 31 15 33 24 30 38 351 5 9 351 341 336 345 167 314 314 91 16 354 308 323 336 13 4 2 4 354 343 355 348 332 352 304 280 305 18 20 314 261 290 95 130 115 111 120 45 342 302 316 320 315 323 328 327
340 340 341 359 37 78 149 165 162 155 165 160 145 111 81 74 43 237 282 326 359 344 344 271 316 351 345 0 4 337 352 352 353 16 23 45 60 17 27 34 15 24 353 337 351 349 335 293 334 350 27 14 33 12 340 327 348 355 0 7 5 355 337 322 318 318 296 289 308 342 15 290 288 306 122 143 147 133 115 18 347 316 316 325 324 326 328 330
34 34 36 60 88 96 113 134 147 146 150 152 139 63 62 79 210 223 276 280 293 334 357 315 323 345 29 35 349 330 22 359 353 21 6 19 41 7 5 13 17 48 83 354 9 0 350 313 328 26 324 342 30 33 307 278 307 317 201 163 56 11 317 303 307 306 304 304 311 335 6 256 295 316 139 149 147 129 37 353 352 341 329 330 329 328 331 332
47 43 53 81 93 103 104 114 134 135 144 144 91 61 79 156 233 168 241 263 300 323 321 3 11 18 12 347 335 12 62 334 351 42 20 24 49 359 354 344 359 33 65 14 334 275 348 272 264 307 307 301 11 347 307 290 303 265 159 87 12 300 248 275 292 291 301 305 303 323 260 233 257 77 124 141 149 93 353 347 352 348 339 337 336 336 336 334
58 54 66 81 92 107 103 112 126 122 150 140 69 57 143 190 207 166 210 282 350 323 318 346 33 39 345 316 336 12 48 315 341 30 26 50 88 1 359 290 333 28 70 76 317 332 356 275 281 329 324 162 22 336 335 22 332 324 23 339 293 221 163 255 307 304 313 311 292 286 301 297 318 38 81 112 301 337 350 350 353 351 346 343 340 337 336 334
65 63 65 68 73 90 111 128 130 124 143 110 77 91 207 192 145 173 141 6 279 54 60 36 22 26 338 312 320 332 351 350 349 18 16 11 30 23 8 319 329 29 52 139 260 230 222 283 295 340 319 285 334 331 334 55 19 30 347 302 291 259 122 102 319 311 312 302 290 307 317 316 321 324 336 309 320 332 343 352 356 351 345 341 336 334 334 333
66 59 55 53 55 66 99 118 125 141 118 84 77 118 175 106 105 201 86 52 278 48 69 78 350 28 23 309 305 315 346 359 356 14 14 347 353 78 48 344 325 8 350 155 197 236 154 293 304 6 263 299 330 354 354 1 36 66 301 307 6 344 344 30 341 306 313 306 303 309 312 311 295 306 339 327 324 335 345 356 355 344 341 337 334 334 333 331
12 33 35 33 46 63 84 103 116 131 102 78 88 144 117 112 66 82 101 5 354 68 71 100 309 27 80 173 282 311 351 9 351 1 31 13 342 66 88 2 298 351 348 142 154 290 140 279 295 308 304 309 338 21 338 322 349 25 337 343 28 335 299 165 226 293 331 308 304 311 314 320 303 311 356 339 330 343 350 352 347 339 339 337 335 334 331 329
313 31 27 24 53 71 84 105 96 85 82 89 151 148 64 117 111 73 49 8 34 71 74 179 145 16 340 233 236 302 3 41 5 353 30 12 331 6 69 66 276 333 339 119 115 337 2 178 263 294 333 340 339 341 322 323 336 0 358 345 350 338 250 282 287 120 89 299 306 313 308 316 345 354 12 338 338 349 351 348 344 340 338 336 334 331 328 329
72 60 21 31 67 77 90 91 64 61 80 97 121 105 45 121 125 76 56 75 77 73 114 156 137 124 151 22 14 223 330 8 55 62 295 328 348 345 20 41 325 329 349 28 32 19 17 197 250 299 338 336 280 269 309 358 93 9 350 334 337 346 350 340 319 319 106 278 297 301 291 306 340 19 332 340 345 352 353 350 343 338 336 332 330 330 329 330
80 67 26 45 68 95 103 77 39 44 90 81 76 91 102 115 107 80 65 69 67 69 98 124 113 118 149 168 260 197 252 331 69 93 222 241 229 244 332 12 356 333 23 356 303 240 163 119 247 276 280 273 277 307 27 37 128 120 28 50 57 70 61 8 294 304 329 281 283 281 284 301 328 20 338 344 348 352 353 347 339 334 332 329 329 332 332 330
74 70 33 47 74 101 103 71 19 31 68 81 89 85 88 102 89 79 58 40 36 55 64 79 98 79 148 206 174 173 206 211 212 238 208 233 260 235 286 8 3 355 35 356 310 318 73 73 334 294 264 262 287 17 47 14 35 13 357 62 56 46 107 205 238 306 320 287 306 301 285 297 328 345 339 342 349 353 348 341 336 331 329 329 332 334 333 334
76 61 43 44 104 122 102 109 113 76 73 102 89 64 62 75 64 55 56 26 19 75 82 69 103 68 168 168 108 179 243 62 223 292 53 204 245 276 272 5 17 27 53 95 348 350 334 358 3 339 328 326 334 357 337 324 358 340 305 50 35 29 18 310 258 17 316 282 317 313 291 301 324 337 338 341 351 349 339 337 336 330 328 332 334 333 336 343
79 60 47 53 83 122 104 123 136 131 144 112 81 43 45 62 50 49 74 65 41 69 82 39 216 108 120 110 59 341 340 32 324 323 20 249 253 285 308 11 27 42 71 125 345 352 328 274 46 19 331 322 321 323 319 324 336 325 337 29 23 36 32 356 341 0 319 301 312 304 293 306 320 330 335 342 348 339 334 336 335 330 331 334 334 336 342 345
92 79 39 47 66 83 89 103 115 118 140 124 82 22 41 74 51 48 66 67 47 59 63 41 217 184 50 57 37 344 333 14 15 34 33 288 274 293 28 10 16 42 80 63 5 30 93 226 219 179 210 260 276 285 299 317 321 308 321 356 7 6 26 19 359 331 309 308 306 303 307 311 320 330 335 342 343 336 334 336 333 333 336 335 335 342 346 344
89 75 24 51 63 73 79 81 90 104 133 133 105 105 84 78 339 36 56 57 53 71 74 49 45 56 40 43 47 309 303 349 9 18 44 257 268 302 319 268 44 30 82 54 19 55 90 299 255 199 216 243 261 278 292 306 300 292 312 347 356 334 352 15 347 307 310 315 307 314 320 316 319 329 336 339 340 336 334 334 333 335 334 334 338 346 346 344
97 103 102 117 103 72 73 70 89 99 97 97 111 133 94 67 47 88 87 44 58 48 64 39 23 28 21 165 89 49 329 358 357 312 341 292 301 344 354 335 91 28 42 55 33 81 114 255 254 213 254 262 266 277 285 290 277 280 323 345 337 329 332 336 314 298 308 311 302 313 320 317 319 331 337 336 337 335 331 330 332 333 333 335 343 347 348 346
121 119 98 101 108 103 103 108 108 98 76 67 95 96 124 119 118 186 272 1 20 6 40 79 335 347 327 182 105 75 325 4 336 297 245 294 317 358 3 340 53 6 11 67 33 69 116 250 255 265 288 287 284 281 279 276 279 309 343 292 306 320 315 311 302 295 301 298 298 310 316 315 323 334 330 329 332 332 330 331 333 333 334 341 348 348 347 341
140 141 128 112 97 86 97 109 113 98 59 42 81 85 152 139 151 195 340 54 96 331 24 64 298 326 56 124 110 115 223 190 228 255 194 138 318 302 196 239 208 346 359 52 54 50 58 285 328 55 312 298 289 284 294 303 308 330 320 297 333 340 334 324 311 310 312 307 308 318 317 311 324 333 325 325 331 333 333 335 335 332 337 348 352 348 342 336
153 158 145 124 96 38 67 87 89 97 51 18 94 161 192 165 169 158 87 43 104 132 40 100 214 336 53 75 138 224 251 220 232 242 209 199 254 241 232 236 206 345 355 22 344 16 51 312 347 47 344 299 300 333 327 316 319 15 14 339 350 345 333 322 316 320 321 319 323 332 326 313 328 333 327 325 332 336 338 337 332 331 344 355 351 344 339 336
151 148 144 127 91 16 53 64 44 81 87 8 122 150 159 171 170 144 97 20 66 99 91 119 160 144 61 6 247 270 285 269 254 255 243 240 250 257 262 265 265 263 237 93 20 347 81 358 327 14 330 300 323 340 320 310 333 12 282 329 351 339 324 318 321 326 327 328 331 331 327 323 328 332 328 327 333 340 340 333 327 334 353 355 346 340 337 336